Weather History for Hill City, KS

Change the Weather History Date:

Friday, February 1, 2013

  Actual Average Record
Temperature  
Mean Temperature 31 °F 30 °F  
Max Temperature 45 °F 43 °F 82 °F (1989)
Min Temperature 17 °F 18 °F -19 °F (1951)
Degree Days  
Heating Degree Days 34    
Moisture  
Dew Point 22 °F    
Average Humidity 70    
Maximum Humidity 92    
Minimum Humidity 49    
Precipitation  
Precipitation 0.00 in 0.02 in 0.06 in (2004)
Month to date precipitation 0.00 0.02  
Year to date precipitation 0.09 0.47  
Sea Level Pressure  
Sea Level Pressure 30.21 in    
Wind  
Wind Speed 10 mph (SW)    
Max Wind Speed 22 mph    
Max Gust Speed 32 mph    
Visibility 10 miles    
Events      
T = Trace of Precipitation, MM = Missing Value Source: NWS Daily Summary

Daily Weather History Graph

Daily Weather History Graph

Search for Another Location

Airport:

Trip Planner

Search our weather history database for the weather conditions in past years. The results will help you decide how hot, cold, wet, or windy it might be!

Date:

Astronomy

Feb. 01, 2013 Rise Set
Actual Time 7:46 AM CST 6:00 PM CST
Civil Twilight 7:17 AM CST 6:28 PM CST
Nautical Twilight 6:45 AM CST 7:00 PM CST
Astronomical Twilight 6:14 AM CST 7:32 PM CST
Moon No Moon Rise 10:22 AM CST (2/1)
Length of Visible Light 11h 10m
Length of Day
10h 13m
Waning Gibbous, 70% of the Moon is Illuminated
Feb 1
Waning Gibbous
Feb 3
Last Quarter
Feb 10
New
Feb 17
First Quarter
Feb 25
Full

Hourly Weather History & Observations

Time (CST) Temp. Windchill Dew Point Humidity Pressure Visibility Wind Dir Wind Speed Gust Speed Precip Events Conditions
12:53 AM 21.0 °F 12.4 °F 15.1 °F 78% 30.38 in 10.0 mi SSW 6.9 mph - N/A   Overcast
1:53 AM 21.0 °F 13.4 °F 15.1 °F 78% 30.37 in 10.0 mi SSW 5.8 mph - N/A   Overcast
2:53 AM 18.0 °F 11.1 °F 14.0 °F 84% 30.36 in 10.0 mi SSW 4.6 mph - N/A   Clear
3:53 AM 18.0 °F 12.7 °F 14.0 °F 84% 30.34 in 10.0 mi WSW 3.5 mph - N/A   Clear
4:53 AM 19.9 °F 9.3 °F 16.0 °F 85% 30.32 in 10.0 mi SW 9.2 mph - N/A   Clear
5:53 AM 18.0 °F 11.1 °F 16.0 °F 92% 30.32 in 10.0 mi SW 4.6 mph - N/A   Clear
6:53 AM 21.0 °F 12.4 °F 17.1 °F 85% 30.31 in 10.0 mi SW 6.9 mph - N/A   Mostly Cloudy
7:53 AM 25.0 °F 11.3 °F 19.0 °F 78% 30.29 in 10.0 mi SW 18.4 mph - N/A   Overcast
8:53 AM 25.0 °F 14.8 °F 19.0 °F 78% 30.28 in 10.0 mi WSW 10.4 mph 19.6 mph N/A   Scattered Clouds
9:53 AM 32.0 °F 20.5 °F 19.9 °F 61% 30.25 in 10.0 mi SW 18.4 mph 28.8 mph N/A   Clear
10:53 AM 32.0 °F 21.2 °F 19.9 °F 61% 30.23 in 10.0 mi SW 16.1 mph 24.2 mph N/A   Clear
11:53 AM 37.0 °F 27.0 °F 21.9 °F 54% 30.20 in 10.0 mi SW 18.4 mph 27.6 mph N/A   Clear
12:53 PM 37.9 °F 27.9 °F 21.9 °F 53% 30.16 in 10.0 mi SW 19.6 mph 27.6 mph N/A   Scattered Clouds
1:53 PM 41.0 °F 31.4 °F 25.0 °F 53% 30.12 in 10.0 mi SW 21.9 mph 32.2 mph N/A   Clear
2:53 PM 43.0 °F 35.1 °F 27.0 °F 53% 30.10 in 10.0 mi SW 17.3 mph 24.2 mph N/A   Clear
3:53 PM 45.0 °F 38.5 °F 27.0 °F 49% 30.07 in 10.0 mi SSW 13.8 mph - N/A   Clear
4:53 PM 44.1 °F 37.1 °F 27.0 °F 51% 30.07 in 10.0 mi SSW 15.0 mph - N/A   Clear
5:53 PM 41.0 °F 36.4 °F 28.0 °F 60% 30.08 in 10.0 mi SSW 6.9 mph - N/A   Mostly Cloudy
6:53 PM 37.9 °F 33.5 °F 28.0 °F 68% 30.10 in 10.0 mi SW 5.8 mph - N/A   Mostly Cloudy
7:53 PM 37.9 °F 32.7 °F 28.0 °F 68% 30.12 in 10.0 mi West 6.9 mph - N/A   Mostly Cloudy
8:53 PM 36.0 °F 29.0 °F 28.0 °F 73% 30.13 in 10.0 mi West 9.2 mph - N/A   Clear
9:53 PM 34.0 °F 29.8 °F 27.0 °F 75% 30.14 in 10.0 mi West 4.6 mph - N/A   Clear
10:53 PM 37.9 °F 31.5 °F 32.0 °F 79% 30.15 in 10.0 mi West 9.2 mph - N/A   Overcast
11:53 PM 39.9 °F 33.4 °F 33.1 °F 77% 30.17 in 10.0 mi NW 10.4 mph - N/A   Overcast